Home   Weather   Albany   Past weeks

Flag for USA Past Weather in Albany, New York, USA — Yesterday and Last 2 Weeks

Now
24 °F

Partly sunny.


Feels Like: 17 °F
Forecast: 26 / 37 °F
Wind: 6 mph from North

Location: Albany County Airport

Current Time: Jan 17, 2017 at 10:00:20 am

Latest Report: Jan 17, 2017 at 8:51 am


Visibility: 10 mi

Pressure: 30.24 "Hg

Humidity: 84%

Dew Point: 20 °F

Location of AlbanyLocation

Past Weather in Albany — Graph

°F

Albany Temperature Yesterday

Maximum temperature yesterday: 38 °F (at 2:51 pm)
Minimum temperature yesterday: 15 °F (at 4:51 am)
Average temperature yesterday: 26 °F

High & Low Weather Summary for the Past Weeks

 TemperatureHumidityPressure
High53 °F (Jan 12, 3:51 pm)97% (Jan 3, 8:51 pm)30.73 "Hg (Jan 3, 8:51 pm)
Low8 °F (Jan 9, 4:51 am)35% (Jan 13, 1:51 pm)29.39 "Hg (Jan 4, 4:44 am)
Average29 °F65%30.19 "Hg
* Reported Jan 2 7:51 am — Jan 17 7:51 am, Albany, Weather by CustomWeather, © 2017

Note: Actual official high and low records may vary slightly from our data, if they occured in-between our weather recording intervals... More about our weather records

Advertising

Albany Weather History for the Previous 24 Hours

Scroll right to see more
 ConditionsComfort  
Time TempWeatherWind HumidityBarometerVisibility
7:51 am
Tue, Jan 17
20 °FBroken clouds.No wind89%30.25 "Hg10 mi
6:51 am20 °FPassing clouds.No wind89%30.25 "Hg10 mi
5:51 am20 °FPassing clouds.No wind85%30.24 "Hg10 mi
4:51 am21 °FPassing clouds.No wind81%30.24 "Hg10 mi
3:51 am21 °FPassing clouds.No wind85%30.24 "Hg10 mi
2:51 am22 °FPassing clouds.No wind82%30.25 "Hg10 mi
1:51 am22 °FPassing clouds.No wind82%30.26 "Hg10 mi
12:51 am22 °FPassing clouds.No wind82%30.25 "Hg10 mi
11:51 pm
Mon, Jan 16
25 °FPassing clouds.No wind75%30.26 "Hg10 mi
10:51 pm26 °FPassing clouds.No wind74%30.27 "Hg10 mi
9:51 pm25 °FPassing clouds.No wind78%30.29 "Hg10 mi
8:51 pm27 °FMostly cloudy.No wind72%30.29 "Hg10 mi
7:51 pm29 °FMostly cloudy.No wind66%30.30 "Hg10 mi
6:51 pm30 °FMostly cloudy.No wind64%30.31 "Hg10 mi
5:51 pm32 °FMostly cloudy.No wind56%30.31 "Hg10 mi
4:51 pm34 °FPartly cloudy.3 mph52%30.31 "Hg10 mi
3:51 pm37 °FPartly sunny.6 mph46%30.31 "Hg10 mi
2:51 pm38 °FScattered clouds.9 mph45%30.30 "Hg10 mi
1:51 pm37 °FScattered clouds.10 mph46%30.32 "Hg10 mi
12:51 pm35 °FScattered clouds.8 mph50%30.35 "Hg10 mi
11:51 am32 °FPassing clouds.8 mph56%30.39 "Hg10 mi
10:51 am29 °FPassing clouds.8 mph61%30.42 "Hg10 mi
Weather by CustomWeather, © 2017

See weather overviewHow to use our weather pages